EZY2122 EGKK-EGPH

Flight info

Callsign EZY2122
Flight time 1h 3m
Altitude 36000
Route LAM L10 BPK UN601 RIBEL DCT INPIP
Aircraft A320/M-SDE3FGHIRWY/LB1

Departure

Time 2026-04-24 14:03
Airport London Gatwick Airport (EGKK)

Arrival

Time 2026-04-24 15:07
Airport Edinburgh Airport (EGPH)
Time Latitude Longitude Altitude Speed Heading
2026-04-24 13:33 51.15569 -0.17750 210 ft 0 kts 348°
2026-04-24 13:49 51.15566 -0.17749 205 ft 3 kts 347°
2026-04-24 13:49 51.15542 -0.17735 209 ft 4 kts 321°
2026-04-24 13:49 51.15526 -0.17704 209 ft 4 kts 288°
2026-04-24 13:49 51.15522 -0.17662 210 ft 4 kts 266°
2026-04-24 13:50 51.15525 -0.17621 208 ft 2 kts 258°
2026-04-24 13:50 51.15526 -0.17618 208 ft 0 kts 258°
2026-04-24 13:54 51.15525 -0.17623 205 ft 3 kts 258°
2026-04-24 13:54 51.15501 -0.17802 210 ft 25 kts 257°
2026-04-24 13:54 51.15465 -0.18061 210 ft 23 kts 257°
2026-04-24 13:54 51.15424 -0.18262 208 ft 14 kts 222°
2026-04-24 13:55 51.15339 -0.18260 205 ft 12 kts 168°
2026-04-24 13:55 51.15266 -0.18234 212 ft 10 kts 167°
2026-04-24 13:55 51.15205 -0.18225 206 ft 8 kts 201°
2026-04-24 13:55 51.15185 -0.18293 212 ft 7 kts 261°
2026-04-24 13:56 51.15171 -0.18421 212 ft 16 kts 258°
2026-04-24 13:56 51.15149 -0.18590 205 ft 15 kts 258°
2026-04-24 13:56 51.15127 -0.18753 214 ft 17 kts 256°
2026-04-24 13:56 51.15097 -0.18979 209 ft 21 kts 257°
2026-04-24 13:57 51.15067 -0.19200 208 ft 20 kts 258°
2026-04-24 13:57 51.15038 -0.19408 208 ft 19 kts 257°
2026-04-24 13:57 51.15014 -0.19585 212 ft 15 kts 257°
2026-04-24 13:57 51.14992 -0.19739 204 ft 14 kts 258°
2026-04-24 13:58 51.14972 -0.19885 213 ft 13 kts 257°
2026-04-24 13:58 51.14951 -0.20027 206 ft 13 kts 257°
2026-04-24 13:58 51.14934 -0.20163 206 ft 12 kts 258°
2026-04-24 13:58 51.14908 -0.20359 202 ft 21 kts 257°
2026-04-24 13:59 51.14886 -0.20509 202 ft 20 kts 257°
2026-04-24 13:59 51.14848 -0.20784 202 ft 18 kts 257°
2026-04-24 13:59 51.14831 -0.20912 205 ft 17 kts 257°
2026-04-24 13:59 51.14805 -0.21094 205 ft 16 kts 257°
2026-04-24 14:00 51.14766 -0.21313 207 ft 15 kts 258°
2026-04-24 14:00 51.14736 -0.21398 205 ft 13 kts 207°
2026-04-24 14:00 51.14692 -0.21393 205 ft 0 kts 162°
2026-04-24 14:01 51.14662 -0.21360 210 ft 14 kts 140°
2026-04-24 14:02 51.14565 -0.21298 204 ft 15 kts 150°
2026-04-24 14:02 51.14516 -0.21162 209 ft 14 kts 88°
2026-04-24 14:02 51.14524 -0.21093 205 ft 0 kts 78°
2026-04-24 14:02 51.14524 -0.21090 205 ft 0 kts 78°
2026-04-24 14:03 51.14546 -0.20934 209 ft 48 kts 78°
2026-04-24 14:03 51.14670 -0.20040 208 ft 114 kts 77°
2026-04-24 14:03 51.14871 -0.18548 317 ft 152 kts 77°
2026-04-24 14:03 51.15102 -0.16921 1091 ft 151 kts 77°
2026-04-24 14:04 51.15348 -0.15263 1757 ft 162 kts 77°
2026-04-24 14:04 51.15605 -0.13399 2128 ft 183 kts 77°
2026-04-24 14:04 51.15894 -0.11273 2478 ft 209 kts 78°
2026-04-24 14:04 51.16218 -0.08875 3000 ft 234 kts 78°
2026-04-24 14:05 51.16764 -0.06393 3714 ft 248 kts 59°
2026-04-24 14:05 51.17811 -0.04155 4683 ft 254 kts 55°
2026-04-24 14:05 51.18901 -0.01905 5614 ft 260 kts 54°
2026-04-24 14:05 51.20024 0.00411 6500 ft 267 kts 54°
2026-04-24 14:06 51.21169 0.02777 7385 ft 272 kts 55°
2026-04-24 14:06 51.22332 0.05186 8267 ft 276 kts 53°
2026-04-24 14:06 51.23517 0.07642 9152 ft 281 kts 54°
2026-04-24 14:06 51.24662 0.10192 10057 ft 283 kts 64°
2026-04-24 14:07 51.25296 0.13159 10826 ft 285 kts 81°
2026-04-24 14:07 51.25668 0.16299 11588 ft 290 kts 81°
2026-04-24 14:07 51.26040 0.19488 12368 ft 295 kts 82°
2026-04-24 14:07 51.26420 0.22742 13130 ft 300 kts 80°
2026-04-24 14:08 51.26804 0.26045 13899 ft 306 kts 82°
2026-04-24 14:08 51.27281 0.29386 14582 ft 313 kts 72°
2026-04-24 14:08 51.28413 0.32388 15217 ft 322 kts 47°
2026-04-24 14:08 51.30234 0.34509 15864 ft 329 kts 23°
2026-04-24 14:09 51.32472 0.35321 16491 ft 333 kts 359°
2026-04-24 14:09 51.34739 0.34664 17216 ft 333 kts 337°
2026-04-24 14:09 51.36869 0.33296 17916 ft 336 kts 335°
2026-04-24 14:09 51.39038 0.31872 18610 ft 339 kts 335°
2026-04-24 14:10 51.41228 0.30431 19204 ft 342 kts 335°
2026-04-24 14:10 51.43433 0.28987 19874 ft 342 kts 335°
2026-04-24 14:10 51.45643 0.27546 20547 ft 343 kts 335°
2026-04-24 14:10 51.47860 0.26107 21206 ft 345 kts 334°
2026-04-24 14:11 51.50087 0.24663 21854 ft 346 kts 334°
2026-04-24 14:11 51.52326 0.23209 22496 ft 348 kts 334°
2026-04-24 14:11 51.56830 0.20263 23763 ft 351 kts 333°
2026-04-24 14:12 51.59099 0.18774 24263 ft 355 kts 333°
2026-04-24 14:12 51.61398 0.17258 24733 ft 357 kts 331°
2026-04-24 14:12 51.63541 0.15299 25218 ft 353 kts 319°
2026-04-24 14:12 51.65391 0.12709 25553 ft 356 kts 308°
2026-04-24 14:13 51.66905 0.09507 25679 ft 365 kts 299°
2026-04-24 14:13 51.68295 0.05995 25801 ft 378 kts 299°
2026-04-24 14:13 51.69739 0.02367 25935 ft 390 kts 299°
2026-04-24 14:13 51.71223 -0.01340 26268 ft 396 kts 300°
2026-04-24 14:14 51.72723 -0.05074 26696 ft 397 kts 300°
2026-04-24 14:14 51.74391 -0.08656 27116 ft 402 kts 308°
2026-04-24 14:14 51.78787 -0.14314 27920 ft 415 kts 325°
2026-04-24 14:15 51.81290 -0.16683 28336 ft 417 kts 325°
2026-04-24 14:15 51.83801 -0.19066 28630 ft 420 kts 325°
2026-04-24 14:15 51.86327 -0.21473 28997 ft 422 kts 324°
2026-04-24 14:15 51.88867 -0.23897 29364 ft 424 kts 324°
2026-04-24 14:16 51.91414 -0.26335 29750 ft 425 kts 324°
2026-04-24 14:16 51.93963 -0.28778 30108 ft 427 kts 324°
2026-04-24 14:16 51.96522 -0.31230 30445 ft 428 kts 324°
2026-04-24 14:17 52.01670 -0.36169 30971 ft 432 kts 324°
2026-04-24 14:17 52.04261 -0.38663 31219 ft 433 kts 324°
2026-04-24 14:17 52.09452 -0.43674 31808 ft 434 kts 324°
2026-04-24 14:18 52.12044 -0.46177 32152 ft 432 kts 324°
2026-04-24 14:18 52.14626 -0.48672 32486 ft 432 kts 324°
2026-04-24 14:18 52.17177 -0.51136 32806 ft 431 kts 324°
2026-04-24 14:18 52.19754 -0.53632 33127 ft 431 kts 324°
2026-04-24 14:19 52.21496 -0.55325 33343 ft 431 kts 324°
2026-04-24 14:19 52.24900 -0.58643 33771 ft 430 kts 324°
2026-04-24 14:19 52.27467 -0.61149 34090 ft 430 kts 324°
2026-04-24 14:19 52.30033 -0.63656 34461 ft 429 kts 324°
2026-04-24 14:20 52.32591 -0.66153 34792 ft 427 kts 324°
2026-04-24 14:20 52.35137 -0.68639 35079 ft 427 kts 324°
2026-04-24 14:20 52.37684 -0.71131 35345 ft 426 kts 324°
2026-04-24 14:20 52.40231 -0.73633 35612 ft 426 kts 324°
2026-04-24 14:21 52.42768 -0.76133 35854 ft 426 kts 324°
2026-04-24 14:21 52.45312 -0.78642 36092 ft 426 kts 324°
2026-04-24 14:21 52.47848 -0.81143 36275 ft 426 kts 324°
2026-04-24 14:21 52.50389 -0.83649 36332 ft 424 kts 324°
2026-04-24 14:22 52.55409 -0.88606 36320 ft 423 kts 324°
2026-04-24 14:23 52.62970 -0.96113 36297 ft 422 kts 324°
2026-04-24 14:23 52.67998 -1.01119 36280 ft 422 kts 325°
2026-04-24 14:24 52.73012 -1.06121 36287 ft 421 kts 325°
2026-04-24 14:24 52.78022 -1.11136 36345 ft 421 kts 326°
2026-04-24 14:25 52.83004 -1.16144 36319 ft 423 kts 326°
2026-04-24 14:25 52.88036 -1.21204 36313 ft 424 kts 326°
2026-04-24 14:26 52.93082 -1.26288 36313 ft 425 kts 325°
2026-04-24 14:26 52.98133 -1.31401 36316 ft 425 kts 325°
2026-04-24 14:27 53.03182 -1.36531 36324 ft 426 kts 326°
2026-04-24 14:27 53.08248 -1.41687 36314 ft 427 kts 326°
2026-04-24 14:28 53.13327 -1.46854 36308 ft 428 kts 326°
2026-04-24 14:28 53.18370 -1.52010 36304 ft 428 kts 326°
2026-04-24 14:29 53.23469 -1.57251 36313 ft 427 kts 326°
2026-04-24 14:29 53.28497 -1.62437 36331 ft 428 kts 327°
2026-04-24 14:30 53.32734 -1.66809 36321 ft 428 kts 327°
2026-04-24 14:30 53.38621 -1.72889 36315 ft 427 kts 327°
2026-04-24 14:31 53.43677 -1.78132 36311 ft 427 kts 327°
2026-04-24 14:31 53.48731 -1.83394 36315 ft 428 kts 327°
2026-04-24 14:32 53.53788 -1.88667 36311 ft 428 kts 327°
2026-04-24 14:32 53.58845 -1.93963 36313 ft 428 kts 327°
2026-04-24 14:33 53.63903 -1.99267 36314 ft 428 kts 327°
2026-04-24 14:33 53.68955 -2.04580 36312 ft 428 kts 327°
2026-04-24 14:34 53.73984 -2.09829 36296 ft 428 kts 331°
2026-04-24 14:34 53.79450 -2.13772 36308 ft 427 kts 337°
2026-04-24 14:35 53.84963 -2.17534 36311 ft 427 kts 337°
2026-04-24 14:35 53.90472 -2.21297 36313 ft 427 kts 337°
2026-04-24 14:36 53.95979 -2.25069 36309 ft 426 kts 337°
2026-04-24 14:36 54.01474 -2.28857 36308 ft 426 kts 338°
2026-04-24 14:37 54.06972 -2.32650 36305 ft 426 kts 338°
2026-04-24 14:37 54.12478 -2.36466 36305 ft 427 kts 338°
2026-04-24 14:38 54.17944 -2.40266 36305 ft 426 kts 338°
2026-04-24 14:38 54.23446 -2.44089 36305 ft 426 kts 338°
2026-04-24 14:39 54.28946 -2.47929 36302 ft 427 kts 338°
2026-04-24 14:39 54.34439 -2.51774 36298 ft 426 kts 338°
2026-04-24 14:40 54.39937 -2.55630 36296 ft 427 kts 338°
2026-04-24 14:40 54.42674 -2.57555 36036 ft 425 kts 338°
2026-04-24 14:40 54.45413 -2.59488 35320 ft 426 kts 339°
2026-04-24 14:40 54.48156 -2.61425 34565 ft 427 kts 340°
2026-04-24 14:41 54.50909 -2.63372 33764 ft 428 kts 340°
2026-04-24 14:41 54.53657 -2.65318 33143 ft 424 kts 340°
2026-04-24 14:41 54.56340 -2.67218 32571 ft 420 kts 340°
2026-04-24 14:41 54.59026 -2.69125 31975 ft 416 kts 339°
2026-04-24 14:42 54.60826 -2.70406 31610 ft 413 kts 339°
2026-04-24 14:42 54.64326 -2.72897 30911 ft 408 kts 340°
2026-04-24 14:42 54.66938 -2.74758 30393 ft 404 kts 340°
2026-04-24 14:42 54.69531 -2.76607 29790 ft 401 kts 340°
2026-04-24 14:43 54.72100 -2.78439 29173 ft 398 kts 340°
2026-04-24 14:43 54.74652 -2.80260 28543 ft 396 kts 339°
2026-04-24 14:43 54.77196 -2.82079 27951 ft 394 kts 339°
2026-04-24 14:43 54.79723 -2.83891 27390 ft 392 kts 339°
2026-04-24 14:44 54.82236 -2.85695 26839 ft 390 kts 339°
2026-04-24 14:44 54.84729 -2.87490 26308 ft 387 kts 339°
2026-04-24 14:44 54.87216 -2.89286 25791 ft 385 kts 339°
2026-04-24 14:44 54.88855 -2.90470 25457 ft 384 kts 339°
2026-04-24 14:45 54.92142 -2.92850 24795 ft 381 kts 338°
2026-04-24 14:45 54.93759 -2.94024 24468 ft 380 kts 338°
2026-04-24 14:45 54.97014 -2.96385 23817 ft 378 kts 338°
2026-04-24 14:45 54.99428 -2.98133 23308 ft 374 kts 338°
2026-04-24 14:46 55.01016 -2.99283 22970 ft 372 kts 338°
2026-04-24 14:46 55.03385 -3.00996 22699 ft 363 kts 338°
2026-04-24 14:46 55.05681 -3.02661 22559 ft 351 kts 338°
2026-04-24 14:46 55.08599 -3.04790 22374 ft 335 kts 338°
2026-04-24 14:47 55.10037 -3.05845 22284 ft 328 kts 338°
2026-04-24 14:47 55.12765 -3.07850 22106 ft 314 kts 338°
2026-04-24 14:47 55.14752 -3.09305 21971 ft 304 kts 338°
2026-04-24 14:47 55.16058 -3.10258 21884 ft 297 kts 338°
2026-04-24 14:48 55.17933 -3.11624 21741 ft 288 kts 338°
2026-04-24 14:48 55.19766 -3.12966 21454 ft 285 kts 338°
2026-04-24 14:48 55.21595 -3.14312 21095 ft 284 kts 338°
2026-04-24 14:48 55.23394 -3.15638 20745 ft 284 kts 338°
2026-04-24 14:49 55.25216 -3.16978 20399 ft 283 kts 337°
2026-04-24 14:49 55.27033 -3.18312 20077 ft 282 kts 337°
2026-04-24 14:49 55.28911 -3.19529 19408 ft 295 kts 346°
2026-04-24 14:49 55.30906 -3.20060 19266 ft 286 kts 358°
2026-04-24 14:50 55.32865 -3.19936 19128 ft 277 kts
2026-04-24 14:50 55.34772 -3.19642 18902 ft 274 kts
2026-04-24 14:50 55.36662 -3.19351 18627 ft 272 kts
2026-04-24 14:50 55.38542 -3.19061 18309 ft 271 kts
2026-04-24 14:51 55.40416 -3.18772 18003 ft 270 kts
2026-04-24 14:51 55.42282 -3.18482 17700 ft 268 kts
2026-04-24 14:51 55.44135 -3.18194 17407 ft 266 kts
2026-04-24 14:51 55.45976 -3.17907 17123 ft 265 kts
2026-04-24 14:52 55.47807 -3.17620 16848 ft 264 kts
2026-04-24 14:52 55.49634 -3.17333 16559 ft 263 kts
2026-04-24 14:52 55.51457 -3.17048 16266 ft 263 kts
2026-04-24 14:52 55.53274 -3.16764 16000 ft 261 kts
2026-04-24 14:53 55.55081 -3.16478 15742 ft 260 kts
2026-04-24 14:53 55.56879 -3.16194 15483 ft 259 kts
2026-04-24 14:53 55.58646 -3.15915 15230 ft 258 kts
2026-04-24 14:53 55.60428 -3.15636 14973 ft 256 kts
2026-04-24 14:54 55.62200 -3.15357 14754 ft 255 kts
2026-04-24 14:54 55.63963 -3.15081 14508 ft 254 kts
2026-04-24 14:54 55.65694 -3.15336 14260 ft 249 kts 338°
2026-04-24 14:54 55.67105 -3.17015 13900 ft 248 kts 308°
2026-04-24 14:55 55.67878 -3.19761 13375 ft 255 kts 284°
2026-04-24 14:55 55.68249 -3.22898 12745 ft 264 kts 280°
2026-04-24 14:55 55.68561 -3.26117 12088 ft 267 kts 280°
2026-04-24 14:55 55.68862 -3.29368 11435 ft 268 kts 279°
2026-04-24 14:56 55.69160 -3.32641 10727 ft 271 kts 279°
2026-04-24 14:56 55.69455 -3.35962 9985 ft 274 kts 279°
2026-04-24 14:56 55.69750 -3.39305 9185 ft 275 kts 279°
2026-04-24 14:56 55.70050 -3.42666 8378 ft 277 kts 279°
2026-04-24 14:57 55.70358 -3.46043 7575 ft 278 kts 279°
2026-04-24 14:57 55.70665 -3.49351 7258 ft 261 kts 279°
2026-04-24 14:57 55.70949 -3.52395 7130 ft 239 kts 279°
2026-04-24 14:57 55.71210 -3.55191 7008 ft 221 kts 279°
2026-04-24 14:58 55.71450 -3.57773 6880 ft 204 kts 279°
2026-04-24 14:58 55.71672 -3.60137 6787 ft 185 kts 279°
2026-04-24 14:58 55.71875 -3.62302 6650 ft 171 kts 279°
2026-04-24 14:58 55.72181 -3.64242 6443 ft 161 kts 305°
2026-04-24 14:59 55.72991 -3.65539 6155 ft 158 kts 325°
2026-04-24 14:59 55.73933 -3.66542 5919 ft 155 kts 329°
2026-04-24 14:59 55.74856 -3.67449 5786 ft 148 kts 329°
2026-04-24 14:59 55.75752 -3.68315 5585 ft 145 kts 329°
2026-04-24 15:00 55.76640 -3.69171 5337 ft 145 kts 329°
2026-04-24 15:00 55.77543 -3.70047 5025 ft 151 kts 329°
2026-04-24 15:00 55.78484 -3.70966 4693 ft 157 kts 329°
2026-04-24 15:00 55.79469 -3.71936 4357 ft 165 kts 329°
2026-04-24 15:01 55.80482 -3.72900 4028 ft 170 kts 337°
2026-04-24 15:01 55.81648 -3.73178 3827 ft 169 kts
2026-04-24 15:01 55.82712 -3.72468 3694 ft 160 kts 34°
2026-04-24 15:01 55.83442 -3.71073 3623 ft 153 kts 58°
2026-04-24 15:02 55.83991 -3.69469 3558 ft 151 kts 57°
2026-04-24 15:02 55.84535 -3.67889 3536 ft 149 kts 57°
2026-04-24 15:02 55.85077 -3.66313 3541 ft 149 kts 57°
2026-04-24 15:02 55.85619 -3.64736 3432 ft 149 kts 57°
2026-04-24 15:03 55.86157 -3.63167 3277 ft 148 kts 58°
2026-04-24 15:03 55.86691 -3.61610 3097 ft 147 kts 58°
2026-04-24 15:03 55.87221 -3.60063 2908 ft 144 kts 58°
2026-04-24 15:03 55.87751 -3.58516 2701 ft 146 kts 58°
2026-04-24 15:04 55.88277 -3.56978 2503 ft 145 kts 58°
2026-04-24 15:04 55.88803 -3.55442 2314 ft 145 kts 58°
2026-04-24 15:04 55.89323 -3.53918 2116 ft 143 kts 58°
2026-04-24 15:04 55.89842 -3.52400 1919 ft 143 kts 58°
2026-04-24 15:05 55.90354 -3.50901 1730 ft 143 kts 58°
2026-04-24 15:05 55.90867 -3.49397 1538 ft 142 kts 59°
2026-04-24 15:05 55.91378 -3.47897 1347 ft 141 kts 59°
2026-04-24 15:05 55.91886 -3.46407 1157 ft 140 kts 58°
2026-04-24 15:06 55.92386 -3.44938 961 ft 138 kts 58°
2026-04-24 15:06 55.92880 -3.43486 777 ft 136 kts 58°
2026-04-24 15:06 55.93366 -3.42057 593 ft 134 kts 58°
2026-04-24 15:06 55.93845 -3.40647 411 ft 132 kts 58°
2026-04-24 15:07 55.94320 -3.39251 239 ft 131 kts 58°
2026-04-24 15:07 55.94777 -3.37905 113 ft 112 kts 59°
2026-04-24 15:07 55.95042 -3.37118 107 ft 47 kts 58°
2026-04-24 15:07 55.95174 -3.36729 109 ft 35 kts 59°
2026-04-24 15:08 55.95263 -3.36366 101 ft 30 kts 111°
2026-04-24 15:08 55.95219 -3.36327 102 ft 2 kts 230°
2026-04-24 15:08 55.95206 -3.36345 102 ft 3 kts 210°
2026-04-24 15:08 55.95196 -3.36344 103 ft 1 kts 175°
2026-04-24 15:09 55.95192 -3.36344 103 ft 1 kts 175°
2026-04-24 15:09 55.95187 -3.36343 103 ft 1 kts 175°
2026-04-24 15:09 55.95184 -3.36341 103 ft 1 kts 165°
2026-04-24 15:09 55.95152 -3.36259 104 ft 13 kts 131°
2026-04-24 15:10 55.95113 -3.36112 104 ft 14 kts 111°
2026-04-24 15:10 55.95083 -3.35956 104 ft 11 kts 113°
2026-04-24 15:10 55.95058 -3.35891 106 ft 5 kts 162°
2026-04-24 15:10 55.95042 -3.35914 106 ft 2 kts 261°
2026-04-24 15:11 55.95039 -3.35935 106 ft 1 kts 251°
2026-04-24 15:11 55.95027 -3.35984 107 ft 13 kts 244°
2026-04-24 15:11 55.95021 -3.36005 106 ft 0 kts 243°
2026-04-24 15:11 55.95020 -3.36010 106 ft 0 kts 243°